Location: Laguna de la Cañada del Gallo
(40.3974°N, 5.2096°W)
Time: 12:10:18
(UTC+00:00)

Cosmos 2219 - Pass Details

Date: 18 April 2024
Orbit: 834 x 858 km, 71.1° (Epoch: 26 May)

Event Time Altitude Azimuth Distance (km) Brightness Sun altitude
Rises 22:29:53 0° 337° (NNW) 3,406 7.4 -32.4°
Reaches altitude 10° 22:32:21 10° 338° (NNW) 2,464 6.4 -32.7°
Enters shadow 22:36:26 49° 344° (NNW) 1,069 3.9 -33.1°
